Location: *
(49.9853°N, 3.5569°E)
Time: 03:02:59
(UTC+00:00)

Cosmos 405 Rocket - Pass Details

Date: 19 December 2019
Orbit: 490 x 554 km, 81.3° (Epoch: 23 January)

Event Time Altitude Azimuth Distance (km) Brightness Sun altitude
Rises 06:02:47 0° 163° (SSE) 2,601 6.8 -14.6°
Reaches altitude 10° 06:05:07 10° 151° (SSE) 1,711 6.1 -14.3°
Maximum altitude 06:08:18 27° 92° (E) 996 5.0 -13.8°
Drops below altitude 10° 06:11:28 10° 34° (NE) 1,703 5.5 -13.3°
Sets 06:13:47 0° 22° (NNE) 2,587 6.3 -13.0°
